Location: Sobotiste
(48.7170°N, 17.4000°E)
Time: 23:19:08
(UTC+01:00)

MOZHAYETS 4 - Visible Passes

Search period start: 14 March 2026 00:00
Search period end: 24 March 2026 00:00
Orbit: 643 x 658 km, 98.3° (Epoch: 14 March)

Date Brightness Start Highest point End Pass type
(mag) Time Alt. Az. Time Alt. Az. Time Alt. Az.
14 Mar 8.8 04:07:55 10° SE 04:12:14 45° ENE 04:16:34 10° N visible
14 Mar 10.4 19:09:32 10° NNW 19:12:54 21° WNW 19:16:14 10° WSW visible
15 Mar 11.0 03:01:04 10° E 03:02:55 12° NE 03:04:47 10° NNE visible
15 Mar 7.8 04:34:20 10° SSE 04:38:51 80° ENE 04:43:25 10° NNW visible
15 Mar 10.9 19:37:13 10° NNW 19:39:15 13° NW 19:41:18 10° W visible
16 Mar 10.4 03:26:01 10° ESE 03:29:17 20° ENE 03:32:34 10° NNE visible
16 Mar 7.7 05:01:07 10° S 05:05:35 57° WSW 05:10:04 10° NNW visible
16 Mar 8.8 18:25:34 10° N 18:29:55 49° WNW 18:34:13 10° SW visible
17 Mar 9.5 03:51:44 10° SE 03:55:44 32° ENE 03:59:46 10° N visible
17 Mar 9.9 18:52:35 10° N 18:56:27 29° WNW 19:00:16 10° WSW visible
18 Mar 8.4 04:17:52 10° SSE 04:22:17 56° ENE 04:26:44 10° N visible
18 Mar 10.7 19:19:53 10° NNW 19:22:52 18° WNW 19:25:50 10° W visible
19 Mar 10.8 03:10:24 10° E 03:12:52 15° ENE 03:15:21 10° NNE visible
19 Mar 7.6 04:44:25 10° SSE 04:48:57 84° WSW 04:53:29 10° NNW visible
19 Mar 11.1 19:48:04 10° NW 19:49:11 11° NW 19:50:18 10° WNW visible
20 Mar 10.1 03:35:41 10° ESE 03:39:16 24° ENE 03:42:51 10° N visible
20 Mar 7.9 05:11:20 10° S 05:15:41 46° W 05:20:04 10° NNW visible
20 Mar 9.3 18:35:44 10° N 18:39:55 40° WNW 18:44:05 10° SW visible
21 Mar 9.2 04:01:33 10° SE 04:05:45 39° ENE 04:09:56 10° N visible
21 Mar 10.3 19:02:48 10° N 19:06:24 24° WNW 19:09:58 10° WSW visible
22 Mar 11.2 02:55:30 10° ENE 02:56:28 11° NE 02:57:27 10° NE visible
22 Mar 8.1 04:27:49 10° SSE 04:32:18 68° ENE 04:36:49 10° N visible
22 Mar 10.8 19:30:16 10° NNW 19:32:47 15° WNW 19:35:17 10° W visible
23 Mar 10.6 03:19:50 10° E 03:22:47 17° ENE 03:25:44 10° NNE visible
23 Mar 7.6 04:54:28 10° S 04:58:59 68° WSW 05:03:30 10° NNW visible
